Weather History for Sussex, NJ

Change the Weather History Date:

Sunday, September 23, 2012

  Actual Average Record
Temperature  
Mean Temperature 56 °F -  
Max Temperature 66 °F 70 °F 90 °F (1970)
Min Temperature 48 °F 46 °F 29 °F (1953)
Degree Days  
Heating Degree Days 9    
Growing Degree Days 6 (Base 50)    
Moisture  
Dew Point 50 °F    
Average Humidity 82    
Maximum Humidity 100    
Minimum Humidity 42    
Precipitation  
Precipitation 0.00 in - - ()
Sea Level Pressure  
Sea Level Pressure 29.99 in    
Wind  
Wind Speed 1 mph (NW)    
Max Wind Speed 8 mph    
Max Gust Speed -    
Visibility 6 miles    
Events Fog    
Averages and records for this station are not official NWS values.
T = Trace of Precipitation, MM = Missing Value Source: NWS Daily Summary

Daily Weather History Graph

Daily Weather History Graph

Search for Another Location

Airport:

Trip Planner

Search our weather history database for the weather conditions in past years. The results will help you decide how hot, cold, wet, or windy it might be!

Date:

Astronomy

Sep. 23, 2012 Rise Set
Actual Time 6:47 AM EDT 6:53 PM EDT
Civil Twilight 6:19 AM EDT 7:20 PM EDT
Nautical Twilight 5:47 AM EDT 7:52 PM EDT
Astronomical Twilight 5:14 AM EDT 8:25 PM EDT
Moon 2:55 PM EDT (9/23) No Moon Set
Length of Visible Light 13h 00m
Length of Day
12h 05m
First Quarter, 60% of the Moon is Illuminated
Sep 23
First Quarter
Sep 29
Full
Oct 8
Last Quarter
Oct 15
New
Oct 21
First Quarter

Hourly Weather History & Observations

Time (EDT) Temp. Dew Point Humidity Pressure Visibility Wind Dir Wind Speed Gust Speed Precip Events Conditions
12:53 AM 59.0 °F 57.9 °F 96% 29.87 in 4.0 mi Calm Calm - N/A   Overcast
1:05 AM 59.0 °F 57.2 °F 94% 29.87 in 1.5 mi Calm Calm - N/A   Mostly Cloudy
1:11 AM 57.2 °F 57.2 °F 100% 29.87 in 0.8 mi Calm Calm - N/A   Mostly Cloudy
1:21 AM 57.2 °F 57.2 °F 100% 29.88 in 1.5 mi Calm Calm - N/A   Partly Cloudy
1:26 AM 57.2 °F 55.4 °F 94% 29.88 in 3.0 mi Calm Calm - N/A   Partly Cloudy
1:40 AM 57.2 °F 55.4 °F 94% 29.88 in 1.8 mi Calm Calm - N/A   Partly Cloudy
1:44 AM 55.4 °F 55.4 °F 100% 29.89 in 1.0 mi Calm Calm - N/A   Partly Cloudy
1:51 AM 55.4 °F 55.4 °F 100% 29.89 in 0.5 mi Calm Calm - N/A Fog Fog
1:53 AM 55.9 °F 55.0 °F 97% 29.89 in 0.8 mi Calm Calm - N/A   Mostly Cloudy
1:56 AM 57.2 °F 55.4 °F 94% 29.89 in 1.5 mi Calm Calm - N/A   Mostly Cloudy
1:59 AM 57.2 °F 55.4 °F 94% 29.89 in 3.0 mi Calm Calm - N/A   Scattered Clouds
2:12 AM 55.4 °F 55.4 °F 100% 29.89 in 1.5 mi Calm Calm - N/A   Mostly Cloudy
2:17 AM 55.4 °F 55.4 °F 100% 29.89 in 0.8 mi Calm Calm - N/A   Mostly Cloudy
2:24 AM 55.4 °F 55.4 °F 100% 29.89 in 1.5 mi Calm Calm - N/A   Mostly Cloudy
2:27 AM 55.4 °F 55.4 °F 100% 29.89 in 3.0 mi Calm Calm - N/A   Mostly Cloudy
2:53 AM 55.9 °F 55.0 °F 97% 29.90 in 5.0 mi Calm Calm - N/A   Overcast
3:53 AM 55.9 °F 52.0 °F 87% 29.93 in 10.0 mi Calm Calm - N/A   Clear
4:53 AM 53.1 °F 48.0 °F 83% 29.97 in 10.0 mi Calm Calm - N/A   Clear
5:53 AM 52.0 °F 46.0 °F 80% 30.00 in 10.0 mi Calm Calm - N/A   Clear
6:53 AM 48.9 °F 44.1 °F 83% 30.03 in 10.0 mi North 3.5 mph - N/A   Clear
7:53 AM 51.1 °F 46.0 °F 83% 30.05 in 10.0 mi Calm Calm - N/A   Clear
8:53 AM 55.0 °F 45.0 °F 69% 30.07 in 10.0 mi Variable 4.6 mph - N/A   Clear
9:53 AM 57.0 °F 45.0 °F 64% 30.08 in 10.0 mi NW 6.9 mph - N/A   Clear
10:53 AM 60.1 °F 44.1 °F 55% 30.08 in 10.0 mi North 6.9 mph - N/A   Clear
11:53 AM 62.1 °F 42.1 °F 48% 30.08 in 10.0 mi Variable 6.9 mph - N/A   Clear
12:53 PM 61.0 °F 42.1 °F 50% 30.08 in 10.0 mi Variable 6.9 mph - N/A   Partly Cloudy
1:53 PM 61.0 °F 41.0 °F 48% 30.07 in 10.0 mi Variable 4.6 mph - N/A   Mostly Cloudy
2:53 PM 64.9 °F 41.0 °F 42% 30.06 in 10.0 mi West 8.1 mph - N/A   Scattered Clouds
3:53 PM 64.0 °F 42.1 °F 45% 30.05 in 10.0 mi Variable 3.5 mph - N/A   Mostly Cloudy
4:53 PM 64.9 °F 41.0 °F 42% 30.06 in 10.0 mi Variable 4.6 mph - N/A   Clear
5:53 PM 62.1 °F 42.1 °F 48% 30.07 in 10.0 mi Calm Calm - N/A   Partly Cloudy
6:53 PM 55.9 °F 50.0 °F 80% 30.08 in 10.0 mi Calm Calm - N/A   Overcast
7:53 PM 51.1 °F 48.9 °F 92% 30.11 in 10.0 mi Calm Calm - N/A   Mostly Cloudy
8:53 PM 52.0 °F 50.0 °F 93% 30.12 in 10.0 mi Calm Calm - N/A   Overcast
9:53 PM 52.0 °F 48.9 °F 89% 30.13 in 10.0 mi Calm Calm - N/A   Overcast
10:53 PM 48.9 °F 46.9 °F 93% 30.14 in 10.0 mi Calm Calm - N/A   Overcast
11:53 PM 48.0 °F 46.9 °F 96% 30.13 in 10.0 mi Calm Calm - N/A   Mostly Cloudy